Location: ??????????
(54.8537°N, 38.8755°E)
Time: 04:24:07
(UTC+00:00)

Tiros 1 despin weight - Pass Details

Date: 20 September 2024
Orbit: 572 x 614 km, 48.2° (Epoch: 10 October)

Event Time Altitude Azimuth Distance (km) Brightness Sun altitude
Rises 23:43:26 0° 235° (SW) 2,857 - -27.0°
Reaches altitude 10° 23:45:56 10° 224° (SW) 1,961 - -26.8°
Maximum altitude 23:49:49 29° 164° (SSE) 1,127 - -26.4°
Exits shadow 23:51:44 21° 124° (SE) 1,376 ? -26.2°
Drops below altitude 10° 23:53:46 10° 104° (ESE) 1,979 ? -26.0°
Sets 23:56:17 0° 94° (E) 2,888 ? -25.8°
